Home   Weather   Kaunas   Past weeks

Flag for Lithuania Past Weather in Kaunas, Lithuania — Yesterday and Last 2 Weeks

Now
46 °F

Passing clouds.


Feels Like: 43 °F
Forecast: 34 / 46 °F
Wind: 7 mph from South

Location: Kaunas

Current Time: Apr 27, 2017 at 12:16:13 pm

Latest Report: Apr 27, 2017 at 11:20 am


Visibility: N/A

Pressure: 29.92 "Hg

Humidity: 62%

Dew Point: 34 °F

Location of KaunasLocation

Past Weather in Kaunas — Graph

°F

Kaunas Temperature Yesterday

Maximum temperature yesterday: 48 °F (at 1:20 pm)
Minimum temperature yesterday: 37 °F (at 3:50 am)
Average temperature yesterday: 42 °F

High & Low Weather Summary for the Past Weeks

 TemperatureHumidityPressure
High57 °F (Apr 25, 2:50 pm)93% (Apr 14, 2:50 am)30.48 "Hg (Apr 14, 2:50 am)
Low23 °F (Apr 18, 3:20 am)34% (Apr 23, 12:50 pm)29.39 "Hg (Apr 13, 5:20 am)
Average39 °F69%29.85 "Hg
* Reported Apr 12 10:20 am — Apr 27 10:50 am, Kaunas, Weather by CustomWeather, © 2017

Note: Actual official high and low records may vary slightly from our data, if they occured in-between our weather recording intervals... More about our weather records

Advertising

Kaunas Weather History for the Previous 24 Hours

Scroll right to see more
 ConditionsComfort  
Time TempWeatherWind HumidityBarometerVisibility
10:50 am
Thu, Apr 27
46 °FSunny.8 mph62%29.92 "Hg10 mi
10:20 am46 °FSunny.8 mph62%29.92 "Hg10 mi
9:50 am45 °FPassing clouds.8 mph61%29.89 "HgN/A
9:20 am45 °FPassing clouds.8 mph66%29.92 "HgN/A
8:50 am43 °FSunny.7 mph71%29.89 "Hg10 mi
8:20 am41 °FPartly sunny.6 mph70%29.89 "HgN/A
7:50 am41 °FPassing clouds.7 mph70%29.89 "HgN/A
7:20 am39 °FSunny.6 mph81%29.89 "Hg10 mi
6:50 am37 °FSunny.1 mph87%29.89 "Hg10 mi
6:20 am37 °FSunny.No wind81%29.89 "Hg10 mi
5:50 am39 °FClear.2 mph75%29.89 "Hg10 mi
5:20 am37 °FClear.3 mph81%29.89 "Hg10 mi
4:50 am36 °FClear.2 mph87%29.89 "Hg10 mi
4:20 am36 °FClear.No wind87%29.89 "Hg10 mi
3:50 am36 °FClear.1 mph87%29.89 "Hg10 mi
3:20 am34 °FOvercast.No wind87%29.89 "HgN/A
2:50 am36 °FOvercast.No wind81%29.89 "HgN/A
2:20 am36 °FMostly cloudy.No wind81%29.89 "HgN/A
1:50 am36 °FOvercast.No wind87%29.89 "HgN/A
1:20 am34 °FPassing clouds.No wind87%29.89 "HgN/A
12:50 am36 °FOvercast.No wind87%29.92 "HgN/A
12:20 am36 °FMostly cloudy.No wind87%29.92 "HgN/A
11:50 pm
Wed, Apr 26
39 °FClear.No wind75%29.89 "Hg10 mi
11:20 pm39 °FClear.No wind75%29.89 "Hg10 mi
10:50 pm41 °FClear.No wind70%29.89 "Hg10 mi
10:20 pm41 °FClear.2 mph70%29.89 "Hg10 mi
9:50 pm41 °FClear.3 mph70%29.89 "Hg10 mi
9:20 pm43 °FPartly cloudy.5 mph66%29.89 "HgN/A
8:50 pm43 °FClear.6 mph66%29.89 "Hg10 mi
8:20 pm43 °FSunny.6 mph66%29.86 "Hg10 mi
7:50 pm45 °FMore clouds than sun.7 mph57%29.86 "HgN/A
7:20 pm46 °FMore clouds than sun.9 mph53%29.86 "HgN/A
6:50 pm46 °FMore clouds than sun.9 mph53%29.86 "HgN/A
6:20 pm46 °FBroken clouds.12 mphN/AN/AN/A
5:50 pm46 °FMostly cloudy.12 mphN/AN/AN/A
5:20 pm46 °FMore clouds than sun.14 mph53%29.83 "HgN/A
4:50 pm46 °FMore clouds than sun.16 mph53%29.83 "HgN/A
4:20 pm46 °FMostly cloudy.15 mphN/AN/AN/A
3:50 pm48 °FMostly cloudy.14 mph46%29.83 "HgN/A
3:20 pm48 °FMore clouds than sun.13 mph46%29.83 "HgN/A
2:50 pm46 °FBroken clouds.15 mph50%29.83 "HgN/A
2:20 pm46 °FPartly sunny.16 mph50%29.80 "HgN/A
1:50 pm48 °FPartly sunny.16 mph46%29.80 "HgN/A
1:20 pm48 °FBroken clouds.16 mph50%29.80 "HgN/A
12:50 pm46 °FPartly sunny.16 mph50%29.80 "HgN/A
12:20 pm45 °FPartly sunny.17 mph57%29.77 "HgN/A
Weather by CustomWeather, © 2017

See weather overviewHow to use our weather pages